Kairouan, Tunisia

7:50 PM CET on September 15, 2019 (GMT +0100)
Kairouan

Weather History for 60735 - August, 2019

Change the Weather History Date:

Monday, August 19, 2019

  Actual Average Record
Temperature  
Mean Temperature 90 °F -  
Max Temperature 102 °F 92 °F - ()
Min Temperature 77 °F 67 °F - ()
Cooling Degree Days 24    
Growing Degree Days 40 (Base 50)    
Moisture  
Dew Point 67 °F    
Average Humidity 49    
Maximum Humidity 78    
Minimum Humidity 19    
Precipitation  
Precipitation 0.00 in 0.04 in - ()
Sea Level Pressure  
Sea Level Pressure 29.93 in    
Wind  
Wind Speed 4 mph ()    
Max Wind Speed 10 mph    
Max Gust Speed -    
Visibility 6.9 miles    
Events      
T = Trace of Precipitation, MM = Missing Value Source: Averaged Metar Reports

Daily Weather History Graph

Daily Weather History Graph

Search for Another Location

Airport or City:

Astronomy

Aug. 19, 2019 Rise Set
Actual Time 5:41 AM CET 7:04 PM CET
Civil Twilight 5:14 AM CET 7:31 PM CET
Nautical Twilight 4:42 AM CET 8:03 PM CET
Astronomical Twilight 4:08 AM CET 8:37 PM CET
Moon 9:25 PM CET (8/19) 9:01 AM CET (8/19)
Length of Visible Light 14h 16m
Length of Day
13h 23m
Waning Gibbous, 87% of the Moon is Illuminated
Aug 19
Waning Gibbous
Aug 23
Last Quarter
Aug 30
New
Sep 6
First Quarter
Sep 14
Full

Hourly Weather History & Observations

Time (CET) Temp. Heat Index Dew Point Humidity Pressure Visibility Wind Dir Wind Speed Gust Speed Precip Events Conditions
12:00 AM 82.4 °F 83.9 °F 64.4 °F 54% 29.95 in - SSE 2.3 mph - N/A   Clear
1:00 AM 81 °F - 65 °F 49% 29.95 in 7 mi SE 2.3 mph - -  
1:00 AM 80.6 °F 82.3 °F 64.4 °F 58% 29.95 in - SE 2.3 mph - N/A   Clear
3:00 AM 78.8 °F - 66.2 °F 65% 29.92 in - SE 4.6 mph - N/A   Unknown
4:00 AM 78 °F - 68 °F 65% 29.92 in 7 mi SE 4.6 mph - -  
4:00 AM 78.8 °F - 68.0 °F 69% 29.92 in - SE 4.6 mph - N/A   Clear
5:00 AM 78.8 °F - 69.8 °F 74% 29.92 in - SE 3.5 mph - N/A   Clear
7:00 AM 79 °F - 71 °F 70% 29.94 in 7 mi SE 2.3 mph - -   Partly Cloudy
7:00 AM 78.8 °F - 71.6 °F 78% 29.95 in 6.2 mi SE 2.3 mph - N/A   Scattered Clouds
8:00 AM 82.4 °F 87.2 °F 71.6 °F 70% 29.95 in 6.2 mi Variable 1.2 mph - N/A   Mostly Cloudy
9:00 AM 87.8 °F 95.6 °F 73.4 °F 62% 29.95 in 6.2 mi SSE 6.9 mph - N/A   Mostly Cloudy
10:00 AM 89 °F - 72 °F 47% 29.94 in 7 mi SE 5.8 mph - -   Mostly Cloudy
10:00 AM 89.6 °F 96.2 °F 71.6 °F 55% 29.95 in 6.2 mi SE 6.9 mph - N/A   Mostly Cloudy
11:00 AM 93.2 °F 98.8 °F 69.8 °F 46% 29.95 in 6.2 mi SSE 4.6 mph - N/A   Scattered Clouds
1:00 PM 97 °F - 64 °F 25% 29.92 in 7 mi SE 4.6 mph - -  
1:00 PM 96.8 °F 99.0 °F 64.4 °F 34% 29.92 in - SE 4.6 mph - N/A   Clear
2:00 PM 100.4 °F 104.9 °F 66.2 °F 33% 29.89 in - East 3.5 mph - N/A   Clear
3:00 PM 100.4 °F 104.9 °F 66.2 °F 33% 29.89 in - NE 4.6 mph - N/A   Clear
4:00 PM 102 °F - 62 °F 19% 29.87 in 9 mi East 6.9 mph - -  
4:00 PM 102.2 °F 104.2 °F 62.6 °F 27% 29.86 in - East 5.8 mph - N/A   Clear
5:00 PM 98.6 °F 101.0 °F 64.4 °F 32% 29.86 in - ESE 10.4 mph - N/A   Clear
6:00 PM 93.2 °F 94.9 °F 64.4 °F 38% 29.89 in - ESE 10.4 mph - N/A   Clear
7:00 PM 91 °F - 60 °F 26% 29.91 in 9 mi ESE 9.2 mph - -   Scattered Clouds
7:00 PM 91.4 °F 91.4 °F 60.8 °F 36% 29.92 in 6.2 mi ESE 9.2 mph - N/A   Partly Cloudy
8:00 PM 87.8 °F 88.5 °F 62.6 °F 43% 29.95 in 6.2 mi ESE 6.9 mph - N/A   Partly Cloudy
9:00 PM 86.0 °F 87.3 °F 64.4 °F 48% 29.98 in 6.2 mi ESE 6.9 mph - N/A   Partly Cloudy
10:00 PM 84 °F - 69 °F 51% 29.99 in 9 mi East 4.6 mph - -   Scattered Clouds
10:00 PM 84.2 °F 87.3 °F 68.0 °F 58% 29.98 in 6.2 mi East 4.6 mph - N/A   Partly Cloudy
11:00 PM 82.4 °F 86.3 °F 69.8 °F 66% 30.04 in 6.2 mi Calm Calm - N/A   Partly Cloudy